Regional Weather Roundup
Issued by NWS Sterling, VA

Current Version | Previous Version | Text Only | Print | Product List | Glossary On
Versions: 1 2 3 4 5 6 7 8 9 10 11 12 13 14 15 16 17 18 19 20 21 22 23 24 25 26 27 28 29 30 31 32 33 34 35 36 37 38 39 40 41 42 43 44 45 46 47 48 49 50
000
ASUS41 KLWX 250010
RWRLWX

REGIONAL WEATHER ROUNDUP
NATIONAL WEATHER SERVICE BALTIMORE MD/WASHINGTON DC
700 PM EST MON NOV 24 2014

Note: "FAIR" indicates few or no clouds below 12,000 feet
with no significant weather and/or obstructions to visibility.
 TC=TEMPERATURE CELSIUS

 * =Non NWS site. Station does not report precipitation (e.g. rain,
    snow, etc.), thunder, or fog.

DCZ001-MDZ009-015-VAZ040>042-051-053>054-250100-
WASHINGTON METRO

CITY           SKY/WX    TMP DP  RH WIND       PRES   REMARKS
WASHINGTON NAT CLEAR     67  52  58 S12       29.70R
DULLES         CLEAR     62  52  69 S8        29.68S
ANDREWS AFB    CLEAR     64  53  68 S10       29.70R
FT BELVOIR     CLEAR     65  53  64 VRB5      29.71R
QUANTICO       PTCLDY    59  50  72 SW13      29.72R
LEESBURG*      CLEAR     64  55  72 SW8       29.68R
GAITHERSBURG*  CLEAR     66  52  59 S9        29.71S

$$

MDZ006>007-011-014-250100-
BALTIMORE METRO

CITY           SKY/WX    TMP DP  RH WIND       PRES   REMARKS
BWI AIRPORT    CLEAR     66  52  60 S6        29.67S
MD SCIENCE CTR   N/A     64  52  64 MISG      29.68R
MARTIN STATE   CLEAR     55  54  94 SE7       29.70R
ANNAPOLIS      CLEAR     57  50  77 S7        29.70R
FORT MEADE*    CLEAR     61  52  72 S3        29.71S

$$

MDZ012-015-019>023-250100-
MARYLAND EASTERN SHORE

CITY           SKY/WX    TMP DP  RH WIND       PRES   REMARKS
OCEAN CITY     CLOUDY    62  60  93 SW15G23   29.77R
SALISBURY      CLEAR     68  61  78 S10       29.76R
BAY BRIDGE AP*   N/A     61  52  72 S7        29.71R
EASTON*        CLEAR     66  57  72 S9        29.75R

$$

MDZ017>025-250100-
SOUTHERN MARYLAND

CITY           SKY/WX    TMP DP  RH WIND       PRES   REMARKS
PATUXENT RIVER PTCLDY    68  58  70 S12G21    29.73R
ST INIGOES     CLEAR     68  57  68 S10       29.74R
LEONARDTOWN*   NOT AVBL

$$

MDZ003>005-250100-
NORTH CENTRAL MARYLAND

CITY           SKY/WX    TMP DP  RH WIND       PRES   REMARKS
FREDERICK*     CLEAR     68  50  52 S12G17    29.67R
HAGERSTOWN APT CLEAR     66  50  56 S13       29.63R
WESTMINSTER*   PTCLDY    64  52  63 S13G20    29.66R

$$

MDZ501>502-250100-
WESTERN MARYLAND

CITY           SKY/WX    TMP DP  RH WIND       PRES   REMARKS
OAKLAND*       CLEAR     55  32  41 W14G23    29.70R
CUMBERLAND*    NOT AVBL

$$

VAZ025>031-250100-
SHENANDOAH VALLEY

CITY           SKY/WX    TMP DP  RH WIND       PRES   REMARKS
WINCHESTER*    CLEAR     63  45  51 S6        29.67R
FRONT ROYAL*   FAIR      63  50  63 SW8       29.66R
LURAY*         FAIR      64  52  63 SW10      29.69R
NEW MARKET*    FAIR      60  50  69 SW7       29.69R
STAUNTON*      FAIR      62  50  65 SW8       29.74R
WAYNESBORO*    FAIR      60  50  68 S8        29.73R

$$

WVZ021-048>050-054>055-250100-
EASTERN WEST VIRGINIA PANHANDLE

CITY           SKY/WX    TMP DP  RH WIND       PRES   REMARKS
MARTINSBURG    CLEAR     64  48  56 S7        29.65R
PETERSBURG*    CLOUDY    71  34  25 SW7G16    29.66R

$$

VAZ036>039-050-250100-
CENTRAL FOOTHILLS

CITY           SKY/WX    TMP DP  RH WIND       PRES   REMARKS
CHARLOTTESVILL CLEAR     64  52  64 S10       29.72R
CULPEPER*      CLEAR     61  54  77 S3        29.71R
ORANGE*        CLEAR     68  54  60 S10       29.73R
GORDONSVILLE*  FAIR      64  53  67 SW10      29.71R
WARRENTON*     FAIR      64  57  77 S5        29.70R

$$

VAZ055>057-250100-
NORTH AND CENTRAL PIEDMONT

CITY           SKY/WX    TMP DP  RH WIND       PRES   REMARKS
FREDERICKSBRG* CLEAR     69  56  64 S9        29.71R
STAFFORD*      CLEAR     67  53  59 S6        29.76R

$$

NCZ024-NYZ072-PAZ021-071-VAZ022-071-250100-
OTHER REGIONAL OBSERVATIONS

CITY           SKY/WX    TMP DP  RH WIND       PRES   REMARKS
NEW YORK CITY  CLEAR     66  54  65 VRB5      29.70R
PHILADELPHIA   CLEAR     63  54  72 S9        29.70R
PITTSBURGH     PTCLDY    55  41  59 SW15G24   29.65R
ROANOKE        CLEAR     63  51  65 S7        29.79R
RICHMOND       PTCLDY    68  61  78 S12       29.77R
RALEIGH        CLOUDY    67  60  78 S10       29.80F

$$

ANZ530>537-250100-
MARINE OBSERVATIONS

STATION/POSITION TIME  TEMP    WIND        PRES
                       AIR SEA DIR/SP/G
                 (UTC) (F)     (DEG/KT/KT) (MB)
THOMAS PT LIGHT  0000   57 49  180/ 19/ 19 1006.9R
BALT KEY BRIDGE  0000   65     130/  9/ 10 1004.7F
COVE POINT       0000   63     190/ 12/ 14 1006.1R
LEWISETTA        0000   67 49  220/ 10/ 11 1007.0R
SOLOMONS ISLAND  2300      51                N/A
PINEY POINT      0000          210/ 15/ 17   N/A

$$



USA.gov is the U.S. government's official web portal to all federal, state and local government web resources and services.